Location: *
(51.1248°S, 108.4023°W)
Time: 05:44:38
(UTC+00:00)

CZ-4 R/B - Visible Passes

Search period start: 18 October 2021 00:00
Search period end: 28 October 2021 00:00
Orbit: 579 x 589 km, 97.7° (Epoch: 17 October)

Date Brightness Start Highest point End Pass type
(mag) Time Alt. Az. Time Alt. Az. Time Alt. Az.
18 Oct 4.9 02:55:36 10° S 02:59:50 68° WSW 03:04:02 10° NNW visible
18 Oct 8.0 04:33:22 10° SW 04:34:26 11° SW 04:35:30 10° WSW visible
19 Oct 5.2 03:01:51 10° S 03:06:04 59° WSW 03:10:12 10° NNW visible
20 Oct 5.5 03:08:08 10° S 03:12:17 51° WSW 03:16:22 10° NW visible
21 Oct 5.8 03:14:26 10° S 03:18:29 45° WSW 03:22:31 10° NW visible
22 Oct 6.1 03:20:43 10° S 03:24:42 39° WSW 03:28:38 10° NW visible
23 Oct 6.3 03:27:01 10° S 03:30:54 35° WSW 03:34:44 10° NW visible
24 Oct 6.6 03:33:20 10° S 03:37:05 31° WSW 03:40:48 10° NW visible
25 Oct 6.8 03:39:39 10° S 03:43:16 27° WSW 03:46:51 10° WNW visible
26 Oct 7.0 03:46:00 10° S 03:49:27 24° WSW 03:52:52 10° WNW visible
27 Oct 7.2 03:52:21 10° SSW 03:55:38 22° WSW 03:58:52 10° WNW visible
